[[{"header":{"parameterUnit":"m.s-1","parameterCategory":1,"la1":30.2991,"la2":30.254,"lo1":-89.0895,"lo2":-89.0444,"dy":0.0017,"dx":0.0017,"nx":28,"ny":28,"refTime":"2025-04-17T09:00:00:Z","depth":0,"parameterNumber":2,"parameterNumberName":"U-component_of_WINDS"},"data":[0,0,0,0,0,0,0,0,0,0,0,0,0,0,0,0,0,0,0,0,0,0,0,0,0,0,0,0,0,0,0,0,0,0,0,0,0,0,0,0,0,0,0,0,0,0,0,0,0,0,0,0,0,0,0,0,0,0,-3.4189,-3.419,0,-3.4309,-3.431,-3.4311,-3.433,-3.4328,-3.4327,-3.4326,-3.4449,-3.4453,-3.4458,0,0,0,0,0,0,0,0,0,0,0,0,0,-3.3977,-3.3981,-3.4189,-3.419,-3.4192,-3.4308,-3.431,-3.4312,-3.433,-3.4328,-3.4327,-3.4326,-3.4448,-3.4453,-3.4458,0,0,0,0,0,0,0,0,0,0,0,0,0,-3.408,-3.3982,-3.4189,-3.4215,-3.4218,-3.4308,-3.431,-3.4312,-3.433,-3.4328,-3.4327,-3.4325,-3.4446,-3.4452,-3.4459,-3.4531,0,0,-3.4478,-3.4481,0,0,0,0,0,0,0,0,-3.4074,-3.4088,-3.4209,-3.4213,-3.4217,-3.4303,-3.4281,-3.4385,-3.433,-3.4288,-3.4326,-3.4324,-3.4402,-3.4412,-3.4438,-3.4536,-3.4542,-3.4479,-3.4483,-3.4486,-3.4487,0,0,0,0,0,0,0,-3.4067,-3.4083,-3.4236,-3.4211,-3.4216,-3.4221,-3.4234,-3.43,-3.4352,-3.4291,-3.4293,-3.4307,-3.4404,-3.4432,-3.4441,-3.4544,-3.4479,-3.4484,-3.4488,-3.4491,-3.4708,-3.471,0,0,0,0,0,0,-3.4055,-3.4077,-3.4232,-3.424,-3.414,-3.4226,-3.4241,-3.4277,-3.4352,-3.4361,-3.4308,-3.4307,-3.4421,-3.4433,-3.4445,-3.4535,-3.4486,-3.4492,-3.4495,-3.4707,-3.4709,-3.4711,0,0,0,0,0,0,-3.405,-3.4069,-3.4228,-3.4159,-3.4179,-3.4232,-3.4272,-3.428,-3.4308,-3.4364,-3.4374,-3.4327,-3.4421,-3.4436,-3.451,-3.4539,-3.4494,-3.45,-3.4704,-3.4707,-3.471,-3.4713,0,0,0,0,0,0,-3.4044,-3.4067,-3.4094,-3.4159,-3.4183,-3.4289,-3.4274,-3.4284,-3.4319,-3.4319,-3.4385,-3.4394,-3.4421,-3.45,-3.4516,-3.4547,-3.4505,-3.4702,-3.4706,-3.4709,-3.4711,-3.4716,-3.4721,0,0,0,0,0,-3.4037,-3.409,-3.4096,-3.4114,-3.4218,-3.4291,-3.4305,-3.4334,-3.4321,-3.4349,-3.4386,-3.4392,-3.4534,-3.4507,-3.4525,-3.4559,-3.47,-3.4705,-3.4709,-3.4709,-3.4715,-3.472,0,0,0,0,0,0,-3.4027,-3.4099,-3.4106,-3.4182,-3.423,-3.4294,-3.433,-3.434,-3.4393,-3.439,-3.4425,-3.444,-3.4511,-3.4543,-3.4512,-3.4633,-3.4616,-3.4624,-3.461,-3.4616,-3.4621,-3.4611,-3.4511,0,0,0,0,0,-3.4034,-3.4087,-3.4147,-3.4209,-3.4233,-3.4277,-3.431,-3.4329,-3.438,-3.4401,-3.4443,-3.4492,-3.4548,-3.4584,-3.4639,-3.4716,-3.4731,-3.4749,-3.4753,-3.4757,-3.4763,-3.4807,-3.4816,-3.4725,-3.4725,-3.4725,0,0,-3.4048,-3.4095,-3.4126,-3.4208,-3.4248,-3.4302,-3.4294,-3.4352,-3.4393,-3.441,-3.4481,-3.4514,-3.4572,-3.4648,-3.4683,-3.4676,-3.4792,-3.4763,-3.4765,-3.4769,-3.4812,-3.4821,-3.4828,-3.4728,-3.4728,-3.4727,0,0,-3.4102,-3.4143,-3.4199,-3.4239,-3.4299,-3.4329,-3.4342,-3.4405,-3.4427,-3.45,-3.4514,-3.4563,-3.4659,-3.47,-3.4733,-3.4805,-3.4812,-3.4822,-3.4846,-3.4889,-3.4896,-3.4902,-3.4927,-3.4936,-3.4828,-3.4828,-3.4828,0,-3.4113,-3.4195,-3.4226,-3.4283,-3.4319,-3.4338,-3.4395,-3.4433,-3.4508,-3.4532,-3.4524,-3.4644,-3.4685,-3.4771,-3.4788,-3.4815,-3.4831,-3.4813,-3.4892,-3.4899,-3.4905,-3.493,-3.4939,-3.4829,-3.4829,-3.4829,-3.4828,0,-3.4204,-3.4261,-3.4299,-3.4371,-3.4412,-3.4469,-3.4509,-3.4547,-3.4563,-3.4594,-3.4668,-3.4718,-3.4783,-3.4805,-3.4821,-3.4894,-3.4887,-3.4885,-3.4868,-3.4914,-3.4938,-3.4947,-3.483,-3.4829,-3.4829,-3.4829,0,0,-3.4254,-3.4344,-3.4357,-3.439,-3.4459,-3.4504,-3.4562,-3.4626,-3.4658,-3.4709,-3.4759,-3.4841,-3.4839,-3.4877,-3.4898,-3.4936,-3.4989,-3.4929,-3.4931,-3.4938,-3.5072,-3.5073,-3.5083,-3.4995,-3.4997,-3.4999,-3.5067,0,-3.4315,-3.4419,-3.445,-3.4538,-3.4591,-3.461,-3.4661,-3.4709,-3.474,-3.479,-3.4825,-3.4882,-3.4876,-3.4899,-3.4937,-3.4974,-3.5016,-3.497,-3.5042,-3.5044,-3.5025,-3.5096,-3.5096,-3.5158,-3.5077,-3.5078,-3.508,0,-3.44,-3.4454,-3.4547,-3.4609,-3.4633,-3.4678,-3.474,-3.4787,-3.4843,-3.4863,-3.4906,-3.4924,-3.4986,-3.4967,-3.5054,-3.5022,-3.5053,-3.5076,-3.508,-3.5086,-3.5063,-3.5103,-3.5179,-3.5188,-3.5095,-3.5093,-3.5092,0,-3.4426,-3.4522,-3.459,-3.4618,-3.4693,-3.4724,-3.4757,-3.4811,-3.4848,-3.4902,-3.4926,-3.4987,-3.502,-3.5067,-3.5102,-3.5085,-3.5185,-3.5169,-3.5204,-3.5203,-3.5223,-3.5221,-3.5303,-3.5245,-3.5245,-3.5244,-3.5244,0,-3.4491,-3.4547,-3.4603,-3.4644,-3.4708,-3.4743,-3.4806,-3.484,-3.4888,-3.4937,-3.4958,-3.5003,-3.5047,-3.5099,-3.5126,-3.5194,-3.5209,-3.5227,-3.5233,-3.5224,-3.5222,-3.5244,-3.524,-3.5247,-3.5246,-3.5246,-3.5246,0,-3.453,-3.457,-3.4645,-3.471,-3.4728,-3.4772,-3.4828,-3.487,-3.4903,-3.4964,-3.4981,-3.5032,-3.5094,-3.5134,-3.5213,-3.5231,-3.5305,-3.5311,-3.5286,-3.5289,-3.5321,-3.5317,-3.542,-3.5436,-3.5367,-3.5368,-3.5369,0,-3.4568,-3.4612,-3.4682,-3.4716,-3.475,-3.4805,-3.4842,-3.488,-3.4919,-3.4986,-3.5019,-3.5083,-3.5135,-3.5234,-3.5278,-3.5339,-3.5346,-3.5378,-3.5355,-3.5345,-3.5346,-3.5342,-3.5347,-3.5381,-3.5382,-3.5382,-3.5382,0,-3.4632,-3.465,-3.4703,-3.4764,-3.4808,-3.4858,-3.4908,-3.4935,-3.4981,-3.5024,-3.5087,-3.5128,-3.521,-3.5272,-3.5338,-3.5372,-3.5385,-3.539,-3.5401,-3.5391,-3.5375,-3.5384,-3.5295,-3.5387,-3.5386,-3.5386,-3.5386,-3.5386,-3.4671,-3.4711,-3.4767,-3.4826,-3.4868,-3.4914,-3.4956,-3.4994,-3.5048,-3.5117,-3.5136,-3.5203,-3.5259,-3.5347,-3.5383,-3.5436,-3.5432,-3.5448,-3.5452,-3.5455,-3.5456,-3.5368,-3.5449,-3.5448,-3.5448,-3.5448,-3.5448,0,-3.4735,-3.4773,-3.4827,-3.4896,-3.4943,-3.4952,-3.5007,-3.5046,-3.5104,-3.5155,-3.5207,-3.528,-3.5342,-3.5392,-3.5455,-3.5488,-3.5496,-3.5504,-3.5501,-3.5509,-3.5456,-3.544,-3.5496,-3.5496,-3.5496,-3.5496,-3.5496,-3.5496,-3.4774,-3.4842,-3.4866,-3.4955,-3.4992,-3.5058,-3.5089,-3.5132,-3.5173,-3.5254,-3.5305,-3.5337,-3.5388,-3.5456,-3.5513,-3.5526,-3.5548,-3.5554,-3.5569,-3.5518,-3.5512,-3.5507,-3.5492,-3.5559,-3.5559,-3.5617,-3.5618,-3.5618]},{"header":{"parameterUnit":"m.s-1","parameterCategory":1,"la1":30.2991,"la2":30.254,"lo1":-89.0895,"lo2":-89.0444,"dy":0.0017,"dx":0.0017,"nx":28,"ny":28,"refTime":"2025-04-17T09:00:00:Z","depth":0,"parameterNumber":3,"parameterNumberName":"V-component_of_WINDS"},"data":[0,0,0,0,0,0,0,0,0,0,0,0,0,0,0,0,0,0,0,0,0,0,0,0,0,0,0,0,0,0,0,0,0,0,0,0,0,0,0,0,0,0,0,0,0,0,0,0,0,0,0,0,0,0,0,0,0,0,5.7562,5.7563,0,5.7668,5.7669,5.767,5.7659,5.7657,5.7656,5.7654,5.7756,5.776,5.7764,0,0,0,0,0,0,0,0,0,0,0,0,0,5.7345,5.7349,5.7562,5.7563,5.7565,5.7667,5.7669,5.767,5.7659,5.7657,5.7655,5.7654,5.7754,5.7759,5.7764,0,0,0,0,0,0,0,0,0,0,0,0,0,5.7443,5.735,5.7562,5.7572,5.7574,5.7667,5.7669,5.7671,5.766,5.7657,5.7655,5.7653,5.7753,5.7759,5.7765,5.7853,0,0,5.7784,5.7787,0,0,0,0,0,0,0,0,5.7438,5.7451,5.7569,5.7571,5.7574,5.7648,5.7629,5.7732,5.766,5.7627,5.7654,5.7651,5.7721,5.773,5.7755,5.7858,5.7862,5.7785,5.7789,5.7792,5.7793,0,0,0,0,0,0,0,5.7431,5.7447,5.7603,5.7571,5.7573,5.7569,5.758,5.7649,5.7686,5.763,5.7629,5.7642,5.7722,5.7749,5.7757,5.7864,5.7785,5.779,5.7794,5.7797,5.8044,5.8047,0,0,0,0,0,0,5.7423,5.7441,5.76,5.7607,5.7498,5.7575,5.7587,5.7626,5.7686,5.7692,5.7644,5.7641,5.7739,5.775,5.7761,5.7868,5.7792,5.7798,5.7801,5.8041,5.8045,5.8048,0,0,0,0,0,0,5.7418,5.7437,5.7596,5.7524,5.7544,5.7581,5.7625,5.763,5.7657,5.7697,5.7703,5.7665,5.7738,5.7752,5.7831,5.7872,5.78,5.7806,5.8038,5.8042,5.8046,5.8084,0,0,0,0,0,0,5.7412,5.7435,5.7471,5.7525,5.7548,5.7666,5.7627,5.7634,5.7668,5.7666,5.7718,5.7724,5.7737,5.7821,5.7837,5.7879,5.7811,5.8035,5.804,5.8045,5.8079,5.8089,5.8097,0,0,0,0,0,5.7404,5.7476,5.7473,5.7492,5.7593,5.7669,5.7681,5.7697,5.7672,5.7707,5.7732,5.7723,5.7865,5.783,5.7847,5.7892,5.8032,5.8038,5.8044,5.8075,5.8087,5.8097,0,0,0,0,0,0,5.7423,5.7483,5.748,5.7572,5.7616,5.7667,5.7711,5.7708,5.7758,5.7753,5.7768,5.778,5.7859,5.7883,5.7843,5.798,5.7945,5.7955,5.7962,5.7973,5.7982,5.7975,5.7816,0,0,0,0,0,5.7438,5.7497,5.7545,5.7621,5.7643,5.7674,5.7707,5.7715,5.776,5.7778,5.7809,5.7851,5.7905,5.794,5.7992,5.8082,5.8093,5.8121,5.813,5.8137,5.8146,5.8195,5.8208,5.8068,5.8068,5.8068,0,0,5.7469,5.7509,5.7545,5.7626,5.7661,5.7719,5.7689,5.7752,5.7795,5.7786,5.7864,5.7888,5.7936,5.8021,5.8059,5.8043,5.8187,5.8145,5.8151,5.8155,5.8203,5.8216,5.8227,5.8072,5.8072,5.8071,0,0,5.7557,5.7593,5.7661,5.7697,5.7751,5.777,5.7787,5.7839,5.7855,5.7933,5.7928,5.7978,5.8071,5.8106,5.8135,5.8236,5.8228,5.8252,5.8299,5.8346,5.8357,5.8367,5.8403,5.8416,5.826,5.826,5.826,0,5.7588,5.7678,5.7695,5.776,5.7795,5.7792,5.786,5.7893,5.796,5.7983,5.7964,5.8081,5.8113,5.8206,5.8231,5.8255,5.8273,5.8246,5.8355,5.8365,5.8374,5.8408,5.8422,5.8263,5.8262,5.8262,5.8262,0,5.7714,5.7777,5.7824,5.7892,5.7933,5.7998,5.8023,5.8061,5.8066,5.8087,5.8166,5.8204,5.8264,5.8287,5.829,5.838,5.8368,5.8352,5.8317,5.839,5.8422,5.8435,5.8266,5.8266,5.8265,5.8264,0,0,5.7817,5.7894,5.7911,5.7942,5.8001,5.8048,5.8113,5.8174,5.8206,5.8252,5.8306,5.8385,5.8371,5.8404,5.8412,5.8453,5.8531,5.8432,5.8433,5.8449,5.8631,5.8644,5.8659,5.8526,5.8529,5.8531,5.8627,0,5.791,5.8028,5.8045,5.8147,5.8205,5.8203,5.8259,5.83,5.8321,5.8371,5.8393,5.845,5.8426,5.8446,5.8488,5.8513,5.8567,5.8506,5.8575,5.8577,5.8564,5.8676,5.8689,5.8779,5.864,5.8642,5.8644,0,5.8035,5.8087,5.8196,5.8248,5.8273,5.8323,5.8381,5.8429,5.8475,5.8487,5.8525,5.8528,5.8593,5.8555,5.8644,5.8602,5.8631,5.8647,5.8651,5.8658,5.8615,5.8686,5.8807,5.8821,5.8664,5.8662,5.8661,0,5.8099,5.8196,5.8275,5.8301,5.8363,5.8398,5.8425,5.8469,5.8505,5.8554,5.8577,5.8631,5.8662,5.8703,5.872,5.8691,5.8808,5.8771,5.8819,5.8818,5.8844,5.8842,5.8972,5.8862,5.8862,5.8861,5.8861,0,5.8202,5.8269,5.8304,5.8352,5.8427,5.8445,5.8517,5.8542,5.8581,5.8633,5.8633,5.8681,5.87,5.875,5.8763,5.8835,5.8848,5.8858,5.8861,5.8859,5.8858,5.8878,5.8873,5.8865,5.8864,5.8863,5.8863,0,5.8287,5.8313,5.8398,5.8451,5.8465,5.8518,5.8562,5.8607,5.8628,5.8693,5.8709,5.8741,5.88,5.8821,5.8892,5.8901,5.8984,5.8981,5.8969,5.897,5.9017,5.9012,5.9165,5.9185,5.9061,5.9062,5.9063,0,5.8351,5.8403,5.8462,5.8497,5.8527,5.8584,5.862,5.8639,5.8677,5.8734,5.8772,5.8831,5.888,5.8974,5.9002,5.9056,5.9055,5.9105,5.9063,5.9059,5.9056,5.9053,5.9058,5.9112,5.9114,5.9115,5.9116,0,5.8463,5.8473,5.8528,5.8587,5.8631,5.8678,5.8723,5.8752,5.8777,5.8819,5.8881,5.8919,5.8992,5.9051,5.9106,5.9131,5.9128,5.9128,5.9142,5.9141,5.9132,5.9138,5.8991,5.9125,5.9124,5.9123,5.9123,5.9122,5.8539,5.8585,5.8634,5.8695,5.8731,5.8773,5.8819,5.8846,5.8899,5.8962,5.8969,5.9035,5.9079,5.9154,5.9182,5.9232,5.9218,5.9238,5.9244,5.9248,5.9252,5.9124,5.9242,5.9242,5.9242,5.9241,5.9241,0,5.8651,5.8683,5.8738,5.8803,5.885,5.8844,5.8893,5.8932,5.8992,5.9034,5.9082,5.9153,5.921,5.9243,5.9299,5.9333,5.9333,5.9347,5.9345,5.9351,5.9261,5.9244,5.9347,5.9347,5.9347,5.9347,5.9347,5.9347,5.8715,5.8793,5.8809,5.8905,5.8935,5.9002,5.9031,5.9069,5.9103,5.9183,5.9231,5.9253,5.9291,5.935,5.9401,5.9409,5.943,5.9446,5.9452,5.9368,5.9357,5.9347,5.9331,5.945,5.945,5.9538,5.9539,5.9539]}]]